Pennock, MN

5:35 AM CST on February 24, 2017 (GMT -0600)
Willmar

Weather History for KBDH - October, 2012

Change the Weather History Date:

Tuesday, October 23, 2012

  Actual Average (KBBB) Record (KBBB)
Temperature  
Mean Temperature 58 °F -  
Max Temperature 62 °F 56 °F 80 °F (1963)
Min Temperature 53 °F 34 °F 3 °F (1999)
Degree Days  
Heating Degree Days 8    
Growing Degree Days 8 (Base 50)    
Moisture  
Dew Point 54 °F    
Average Humidity 88    
Maximum Humidity 94    
Minimum Humidity 72    
Precipitation  
Precipitation 0.22 in - - ()
Sea Level Pressure  
Sea Level Pressure 29.74 in    
Wind  
Wind Speed 9 mph (ESE)    
Max Wind Speed 15 mph    
Max Gust Speed 18 mph    
Visibility 4 miles    
Events Fog , Rain , Thunderstorm    
Averages and records for this station are not official NWS values.
T = Trace of Precipitation, MM = Missing Value Source: NWS Daily Summary

Daily Weather History Graph

Daily Weather History Graph

Search for Another Location

Airport or City:

Trip Planner

Search our weather history database for the weather conditions in past years. The results will help you decide how hot, cold, wet, or windy it might be!

Date:

Astronomy

Oct. 23, 2012 Rise Set
Actual Time 7:47 AM CDT 6:21 PM CDT
Civil Twilight 7:17 AM CDT 6:51 PM CDT
Nautical Twilight 6:43 AM CDT 7:25 PM CDT
Astronomical Twilight 6:09 AM CDT 7:59 PM CDT
Moon 3:19 PM CDT (10/23) 1:24 AM CDT (10/23)
Length of Visible Light 11h 33m
Length of Day
10h 33m
Waxing Gibbous, 67% of the Moon is Illuminated
Oct 23
Waxing Gibbous
Oct 29
Full
Nov 6
Last Quarter
Nov 13
New
Nov 20
First Quarter

Hourly Weather History & Observations

Time (CDT) Temp. Dew Point Humidity Pressure Visibility Wind Dir Wind Speed Gust Speed Precip Events Conditions
12:16 AM 55.4 °F 46.4 °F 72% 29.84 in 10.0 mi East 15.0 mph - N/A   Overcast
12:35 AM 55.4 °F 46.4 °F 72% 29.83 in 10.0 mi East 11.5 mph - N/A   Overcast
12:55 AM 55.4 °F 46.4 °F 72% 29.83 in 10.0 mi East 10.4 mph - N/A   Overcast
1:16 AM 55.4 °F 46.4 °F 72% 29.83 in 10.0 mi East 9.2 mph 17.3 mph N/A   Overcast
1:35 AM 53.6 °F 46.4 °F 77% 29.83 in 10.0 mi East 12.7 mph 16.1 mph N/A   Overcast
1:55 AM 53.6 °F 46.4 °F 77% 29.82 in 7.0 mi East 9.2 mph - 0.04 in Rain Heavy Rain
2:16 AM 53.6 °F 48.2 °F 82% 29.81 in 10.0 mi East 11.5 mph - 0.02 in   Overcast
2:35 AM 53.6 °F 48.2 °F 82% 29.80 in 10.0 mi East 9.2 mph - 0.02 in   Overcast
2:55 AM 53.6 °F 48.2 °F 82% 29.79 in 10.0 mi East 12.7 mph - 0.02 in Rain , Thunderstorm Light Thunderstorms and Rain
3:16 AM 53.6 °F 48.2 °F 82% 29.79 in 2.0 mi East 10.4 mph - 0.15 in Rain , Thunderstorm Heavy Thunderstorms and Rain
3:35 AM 53.6 °F 48.2 °F 82% 29.77 in 7.0 mi East 12.7 mph - 0.16 in Rain Light Rain
3:55 AM 53.6 °F 48.2 °F 82% 29.76 in 7.0 mi ENE 9.2 mph - 0.16 in Rain Light Rain
4:15 AM 53.6 °F 50.0 °F 88% 29.76 in 7.0 mi East 10.4 mph - N/A   Overcast
4:35 AM 53.6 °F 50.0 °F 88% 29.76 in 7.0 mi East 9.2 mph - N/A   Overcast
4:55 AM 53.6 °F 50.0 °F 88% 29.76 in 7.0 mi East 9.2 mph - N/A   Overcast
5:15 AM 53.6 °F 50.0 °F 88% 29.76 in 7.0 mi East 10.4 mph - N/A   Overcast
5:35 AM 53.6 °F 50.0 °F 88% 29.76 in 4.0 mi East 9.2 mph - N/A   Overcast
5:55 AM 53.6 °F 50.0 °F 88% 29.76 in 3.0 mi East 10.4 mph - N/A   Overcast
6:35 AM 53.6 °F 51.8 °F 94% 29.75 in 1.8 mi East 9.2 mph - N/A   Overcast
6:55 AM 53.6 °F 51.8 °F 94% 29.74 in 2.0 mi East 9.2 mph - N/A   Overcast
7:16 AM 53.6 °F 51.8 °F 94% 29.75 in 1.8 mi East 8.1 mph - N/A   Overcast
7:35 AM 55.4 °F 51.8 °F 88% 29.74 in 1.5 mi East 8.1 mph - N/A   Overcast
7:55 AM 55.4 °F 53.6 °F 94% 29.74 in 1.0 mi East 10.4 mph - N/A   Overcast
8:15 AM 55.4 °F 53.6 °F 94% 29.74 in 1.5 mi East 10.4 mph - N/A   Overcast
8:35 AM 55.4 °F 53.6 °F 94% 29.74 in 0.8 mi East 13.8 mph 18.4 mph N/A   Overcast
8:56 AM 55.4 °F 53.6 °F 94% 29.73 in 0.8 mi East 11.5 mph - N/A   Overcast
9:15 AM 55.4 °F 53.6 °F 94% 29.73 in 1.2 mi East 10.4 mph 17.3 mph N/A   Overcast
9:35 AM 57.2 °F 55.4 °F 94% 29.72 in 1.2 mi East 13.8 mph - N/A   Overcast
10:15 AM 57.2 °F 55.4 °F 94% 29.72 in 1.5 mi East 10.4 mph 16.1 mph N/A   Overcast
10:56 AM 57.2 °F 55.4 °F 94% 29.73 in 0.2 mi ESE 12.7 mph - N/A Fog Fog
11:15 AM 57.2 °F 55.4 °F 94% 29.73 in 0.2 mi ESE 10.4 mph - N/A Fog Fog
11:35 AM 59.0 °F 57.2 °F 94% 29.72 in 0.2 mi ESE 10.4 mph - N/A Fog Fog
11:55 AM 59.0 °F 57.2 °F 94% 29.72 in 0.2 mi ESE 12.7 mph - N/A Fog Fog
12:15 PM 59.0 °F 57.2 °F 94% 29.71 in 0.2 mi East 10.4 mph - N/A Fog Fog
12:35 PM 60.8 °F 57.2 °F 88% 29.69 in 0.2 mi ESE 9.2 mph - N/A Fog Fog
12:55 PM 60.8 °F 57.2 °F 88% 29.69 in 0.2 mi ESE 10.4 mph - N/A Fog Fog
1:15 PM 60.8 °F 57.2 °F 88% 29.68 in 0.2 mi ESE 9.2 mph - N/A Fog Fog
1:36 PM 60.8 °F 57.2 °F 88% 29.67 in 0.2 mi ESE 8.1 mph - N/A Fog Fog
1:55 PM 60.8 °F 57.2 °F 88% 29.68 in 0.2 mi East 5.8 mph - N/A Fog Fog
2:15 PM 60.8 °F 59.0 °F 94% 29.67 in 0.2 mi East 5.8 mph - N/A Fog Fog
2:35 PM 60.8 °F 59.0 °F 94% 29.66 in 0.2 mi East 4.6 mph - N/A Fog Fog
2:55 PM 62.6 °F 60.8 °F 94% 29.66 in 0.2 mi SE 4.6 mph - N/A Fog Fog
3:15 PM 62.6 °F 60.8 °F 94% 29.67 in 1.0 mi SSW 3.5 mph - N/A   Overcast
3:35 PM 62.6 °F 60.8 °F 94% 29.67 in 1.5 mi SSW 8.1 mph - N/A   Overcast
3:55 PM 60.8 °F 59.0 °F 94% 29.67 in 1.2 mi SSW 4.6 mph - N/A   Overcast
4:15 PM 60.8 °F 59.0 °F 94% 29.68 in 2.0 mi SSW 4.6 mph - N/A   Overcast
4:35 PM 60.8 °F 59.0 °F 94% 29.68 in 2.0 mi Calm Calm - N/A   Overcast
4:55 PM 62.6 °F 59.0 °F 88% 29.68 in 2.0 mi Calm Calm - N/A   Overcast
5:15 PM 62.6 °F 59.0 °F 88% 29.69 in 2.0 mi Calm Calm - N/A   Mostly Cloudy
5:35 PM 62.6 °F 60.8 °F 94% 29.70 in 2.0 mi Calm Calm - N/A   Overcast
5:55 PM 62.6 °F 59.0 °F 88% 29.71 in 1.8 mi South 3.5 mph - N/A   Overcast
6:15 PM 62.6 °F 59.0 °F 88% 29.70 in 2.0 mi Calm Calm - N/A   Overcast
6:35 PM 62.6 °F 59.0 °F 88% 29.70 in 3.0 mi Calm Calm - N/A   Overcast
6:55 PM 60.8 °F 57.2 °F 88% 29.71 in 3.0 mi South 4.6 mph - N/A   Overcast
7:15 PM 60.8 °F 57.2 °F 88% 29.72 in 4.0 mi Calm Calm - N/A   Overcast
7:35 PM 60.8 °F 57.2 °F 88% 29.73 in 5.0 mi South 4.6 mph - N/A   Overcast
7:55 PM 60.8 °F 57.2 °F 88% 29.74 in 4.0 mi South 3.5 mph - N/A   Overcast
8:16 PM 60.8 °F 57.2 °F 88% 29.75 in 5.0 mi SSW 3.5 mph - N/A   Overcast
8:35 PM 60.8 °F 57.2 °F 88% 29.75 in 5.0 mi SSW 3.5 mph - N/A   Overcast
8:55 PM 60.8 °F 55.4 °F 82% 29.77 in 5.0 mi SSW 5.8 mph - N/A   Overcast
9:16 PM 60.8 °F 57.2 °F 88% 29.77 in 5.0 mi SSW 3.5 mph - N/A   Overcast
9:35 PM 60.8 °F 55.4 °F 82% 29.77 in 4.0 mi SSW 3.5 mph - N/A   Overcast
9:55 PM 60.8 °F 55.4 °F 82% 29.78 in 4.0 mi Calm Calm - N/A   Mostly Cloudy
10:35 PM 59.0 °F 55.4 °F 88% 29.79 in 4.0 mi SSW 3.5 mph - N/A   Overcast
10:55 PM 59.0 °F 55.4 °F 88% 29.79 in 5.0 mi SW 8.1 mph - N/A   Overcast
11:16 PM 59.0 °F 55.4 °F 88% 29.79 in 4.0 mi SSW 3.5 mph - N/A   Overcast
11:35 PM 59.0 °F 55.4 °F 88% 29.78 in 4.0 mi Calm Calm - N/A   Overcast
11:55 PM 59.0 °F 55.4 °F 88% 29.79 in 4.0 mi SW 6.9 mph - N/A   Overcast